When you browse on this site, cookies collect data to enhance your experience and personalize the content and advertising you see.
Visit our Privacy Policy to learn more. By continuing to use the site, you agree to this use of cookies and data.
  • In Spain
  • List of Countries
  • For 7 days
  • Water Temperature
  • Weather Map
  • Weather Widgets
  • user-avatar
    Login

    Hourly Weather Kokchetaw

    Today, 21 August, Wednesday

    Time Temperature Precipitation Wind Pressure Humidity
    00:00 +17°C° 0.3 mm 2 mps 741 mmHg 89%
    01:00 +16°C° 0.3 mm 2 mps 740 mmHg 91%
    02:00 +16°C° 0.3 mm 2 mps 740 mmHg 93%
    03:00 +16°C° 2 mm 2 mps 740 mmHg 94%
    04:00 +16°C° 2 mm 2 mps 739 mmHg 95%
    05:00 +16°C° 0 mm 1 mps 739 mmHg 94%
    06:00 +15°C° 1.2 mm 2 mps 739 mmHg 95%
    07:00 +14°C° 1.2 mm 3 mps 739 mmHg 95%
    08:00 +14°C° 1.2 mm 4 mps 738 mmHg 95%
    09:00 +14°C° 0.3 mm 4 mps 738 mmHg 94%
    10:00 +14°C° 0.3 mm 4 mps 738 mmHg 93%
    11:00 +14°C° 0.3 mm 4 mps 738 mmHg 91%
    12:00 +14°C° 0.5 mm 4 mps 738 mmHg 89%
    13:00 +14°C° 0.5 mm 4 mps 738 mmHg 87%
    14:00 +14°C° 0.5 mm 4 mps 737 mmHg 85%
    15:00 +16°C° 0.3 mm 3 mps 737 mmHg 82%
    16:00 +16°C° 0.3 mm 3 mps 738 mmHg 79%
    17:00 +17°C° 0.3 mm 2 mps 738 mmHg 77%
    18:00 +16°C° 0 mm 3 mps 738 mmHg 79%
    19:00 +14°C° 0 mm 3 mps 738 mmHg 81%
    20:00 +13°C° 0 mm 3 mps 738 mmHg 83%
    21:00 +13°C° 0 mm 3 mps 738 mmHg 83%
    22:00 +12°C° 0 mm 3 mps 738 mmHg 84%
    23:00 +12°C° 0 mm 3 mps 738 mmHg 85%

    Tomorrow, 22 August, Thursday

    Time Temperature Precipitation Wind Pressure Humidity
    00:00 +11°C° 0 mm 3 mps 738 mmHg 85%
    01:00 +11°C° 0 mm 3 mps 738 mmHg 85%
    02:00 +10°C° 0 mm 3 mps 738 mmHg 85%
    03:00 +10°C° 0 mm 3 mps 738 mmHg 86%
    04:00 +10°C° 0 mm 3 mps 738 mmHg 87%
    05:00 +10°C° 0 mm 2 mps 738 mmHg 88%
    06:00 +11°C° 0.1 mm 3 mps 738 mmHg 89%
    07:00 +12°C° 0.1 mm 3 mps 738 mmHg 90%
    08:00 +12°C° 0.1 mm 3 mps 738 mmHg 91%
    09:00 +13°C° 0.3 mm 3 mps 738 mmHg 90%
    10:00 +14°C° 0.3 mm 4 mps 738 mmHg 90%
    11:00 +14°C° 0.3 mm 4 mps 739 mmHg 90%
    12:00 +17°C° 0.3 mm 4 mps 739 mmHg 84%
    13:00 +17°C° 0.3 mm 5 mps 739 mmHg 78%
    14:00 +19°C° 0.3 mm 5 mps 739 mmHg 72%
    15:00 +19°C° 0.2 mm 5 mps 739 mmHg 71%
    16:00 +19°C° 0.2 mm 5 mps 739 mmHg 70%
    17:00 +19°C° 0.2 mm 5 mps 739 mmHg 69%
    18:00 +18°C° 0 mm 4 mps 740 mmHg 74%
    19:00 +16°C° 0 mm 3 mps 740 mmHg 80%
    20:00 +15°C° 0 mm 2 mps 740 mmHg 86%
    21:00 +15°C° 0 mm 2 mps 740 mmHg 86%
    22:00 +14°C° 0 mm 2 mps 740 mmHg 86%
    23:00 +14°C° 0 mm 2 mps 740 mmHg 86%

    Day after tomorrow, 23 August, Friday

    Time Temperature Precipitation Wind Pressure Humidity
    00:00 +14°C° 0 mm 2 mps 740 mmHg 88%
    01:00 +13°C° 0 mm 2 mps 740 mmHg 89%
    02:00 +13°C° 0 mm 2 mps 740 mmHg 91%
    03:00 +13°C° 0 mm 2 mps 741 mmHg 91%
    04:00 +13°C° 0 mm 2 mps 741 mmHg 91%
    05:00 +13°C° 0 mm 2 mps 742 mmHg 92%
    06:00 +14°C° 0 mm 2 mps 742 mmHg 88%
    07:00 +16°C° 0 mm 2 mps 742 mmHg 84%
    08:00 +17°C° 0 mm 3 mps 742 mmHg 80%
    09:00 +19°C° 0 mm 3 mps 742 mmHg 73%
    10:00 +20°C° 0 mm 3 mps 742 mmHg 66%
    11:00 +22°C° 0 mm 4 mps 743 mmHg 59%
    12:00 +23°C° 0 mm 4 mps 742 mmHg 57%
    13:00 +23°C° 0 mm 4 mps 742 mmHg 54%
    14:00 +25°C° 0 mm 4 mps 742 mmHg 52%
    15:00 +23°C° 0 mm 4 mps 742 mmHg 53%
    16:00 +23°C° 0 mm 4 mps 742 mmHg 54%
    17:00 +23°C° 0 mm 4 mps 742 mmHg 55%
    18:00 +22°C° 0 mm 3 mps 742 mmHg 62%
    19:00 +20°C° 0 mm 3 mps 742 mmHg 69%
    20:00 +18°C° 0 mm 2 mps 742 mmHg 76%
    21:00 +18°C° 0 mm 3 mps 742 mmHg 78%
    22:00 +17°C° 0 mm 3 mps 741 mmHg 80%
    23:00 +16°C° 0 mm 3 mps 741 mmHg 81%

    24 August, Saturday

    Time Temperature Precipitation Wind Pressure Humidity
    00:00 +16°C° 0 mm 3 mps 741 mmHg 81%
    01:00 +16°C° 0 mm 3 mps 741 mmHg 81%
    02:00 +15°C° 0 mm 4 mps 741 mmHg 80%
    03:00 +14°C° 0 mm 4 mps 741 mmHg 80%
    04:00 +14°C° 0 mm 4 mps 741 mmHg 79%
    05:00 +14°C° 0 mm 4 mps 741 mmHg 79%
    06:00 +16°C° 0 mm 5 mps 741 mmHg 75%
    07:00 +17°C° 0 mm 5 mps 741 mmHg 70%
    08:00 +19°C° 0 mm 5 mps 741 mmHg 66%
    09:00 +21°C° 0 mm 5 mps 741 mmHg 63%
    10:00 +22°C° 0 mm 5 mps 741 mmHg 61%
    11:00 +25°C° 0 mm 5 mps 741 mmHg 58%
    12:00 +25°C° 0.5 mm 5 mps 741 mmHg 61%
    13:00 +25°C° 0.5 mm 5 mps 741 mmHg 63%
    14:00 +25°C° 0.5 mm 5 mps 740 mmHg 66%
    15:00 +23°C° 0.8 mm 5 mps 740 mmHg 66%
    16:00 +23°C° 0.8 mm 4 mps 740 mmHg 67%
    17:00 +22°C° 0.8 mm 4 mps 741 mmHg 68%
    18:00 +21°C° 0.1 mm 3 mps 741 mmHg 70%
    19:00 +19°C° 0.1 mm 3 mps 741 mmHg 72%
    20:00 +18°C° 0.1 mm 3 mps 741 mmHg 73%
    21:00 +17°C° 0 mm 2 mps 741 mmHg 76%
    22:00 +16°C° 0 mm 2 mps 741 mmHg 78%
    23:00 +15°C° 0 mm 2 mps 741 mmHg 80%

    25 August, Sunday

    Time Temperature Precipitation Wind Pressure Humidity
    00:00 +14°C° 0 mm 2 mps 741 mmHg 82%
    01:00 +14°C° 0 mm 2 mps 741 mmHg 85%
    02:00 +13°C° 0 mm 2 mps 741 mmHg 87%
    03:00 +13°C° 0 mm 2 mps 742 mmHg 88%
    04:00 +13°C° 0 mm 2 mps 742 mmHg 89%
    05:00 +12°C° 0 mm 2 mps 742 mmHg 90%
    06:00 +14°C° 0 mm 2 mps 742 mmHg 86%
    07:00 +15°C° 0 mm 2 mps 742 mmHg 81%
    08:00 +16°C° 0 mm 2 mps 743 mmHg 77%
    09:00 +17°C° 0 mm 3 mps 743 mmHg 70%
    10:00 +19°C° 0 mm 3 mps 743 mmHg 64%
    11:00 +20°C° 0 mm 3 mps 743 mmHg 58%
    12:00 +21°C° 0 mm 3 mps 743 mmHg 54%
    13:00 +22°C° 0 mm 3 mps 743 mmHg 50%
    14:00 +22°C° 0 mm 3 mps 742 mmHg 46%
    15:00 +23°C° 0 mm 2 mps 742 mmHg 46%
    16:00 +23°C° 0 mm 2 mps 742 mmHg 46%
    17:00 +23°C° 0 mm 1 mps 742 mmHg 45%
    18:00 +21°C° 0 mm 1 mps 742 mmHg 50%
    19:00 +20°C° 0 mm 1 mps 742 mmHg 55%
    20:00 +16°C° 0 mm 0 mps 742 mmHg 60%
    21:00 +18°C° 0 mm 1 mps 742 mmHg 62%
    22:00 +16°C° 0 mm 1 mps 741 mmHg 64%
    23:00 +16°C° 0 mm 2 mps 741 mmHg 66%

    26 August, Monday

    Time Temperature Precipitation Wind Pressure Humidity
    00:00 +15°C° 0 mm 2 mps 741 mmHg 67%
    01:00 +15°C° 0 mm 2 mps 741 mmHg 69%
    02:00 +13°C° 0 mm 3 mps 741 mmHg 71%
    03:00 +13°C° 0 mm 3 mps 740 mmHg 72%
    04:00 +13°C° 0 mm 3 mps 740 mmHg 72%
    05:00 +13°C° 0 mm 3 mps 740 mmHg 73%
    06:00 +14°C° 0 mm 4 mps 740 mmHg 69%
    07:00 +15°C° 0 mm 4 mps 739 mmHg 64%
    08:00 +18°C° 0 mm 4 mps 739 mmHg 60%
    09:00 +20°C° 0 mm 5 mps 739 mmHg 54%
    10:00 +22°C° 0 mm 5 mps 738 mmHg 48%
    11:00 +25°C° 0 mm 5 mps 738 mmHg 42%
    12:00 +26°C° 0 mm 5 mps 738 mmHg 41%
    13:00 +27°C° 0 mm 4 mps 737 mmHg 39%
    14:00 +28°C° 0 mm 4 mps 737 mmHg 37%
    15:00 +27°C° 0 mm 4 mps 736 mmHg 41%
    16:00 +27°C° 0 mm 3 mps 735 mmHg 45%
    17:00 +26°C° 0 mm 3 mps 734 mmHg 49%
    18:00 +25°C° 0 mm 4 mps 734 mmHg 51%
    19:00 +23°C° 0 mm 4 mps 733 mmHg 54%
    20:00 +22°C° 0 mm 5 mps 733 mmHg 56%
    21:00 +21°C° 0.7 mm 5 mps 732 mmHg 63%
    22:00 +20°C° 0.7 mm 5 mps 732 mmHg 70%
    23:00 +19°C° 0.7 mm 4 mps 731 mmHg 78%
    Show more